DNMMDNIM

Guest
Details From DNMM - Lagos Murtala Muhammed
To DNIM - IMO
Flight Number -
Tags generated
Created
Modified
Stats Distance 248 nm / 459 km
Max Altitude 23,500 ft / 7,163 m
Waypoints 4
Social Downloads 0
Likes 0
Share VATSIM

Download

Looking for another format? Having issues loading an existing format? Contact us
Advertisement - Login to hide

Notes

Basic altitude profile: - Ascent Rate: 2500ft/min - Ascent Speed: 250kts - Cruise Altitude: 35000ft - Cruise Speed: 420kts - Descent Rate: 1500ft/min - Descent Speed: 250kts Options: - Use NATs: yes - Use PACOTS: yes - Use low airways: yes - Use high airways: yes

Route

DNMM MILBO UR984 POSAD DNIM

ID Type Via Altitude Latitude Longitude Leg Dist Tot Dist Heading (true) Name
O DNMM APT - 0 ft / 0 m 6.57738˚ 3.32135˚ - 0 nm - Lagos Murtala Muhammed
MILBO FIX - 21,200 ft / 6,462 m 6.23936˚ 4.30845˚ 62 nm 62 nm 109° / 109° -
POSAD FIX UR984 (AWY-HI) 23,500 ft / 7,163 m 5.34453˚ 6.17684˚ 123 nm 186 nm 116° / 116° -
O DNIM APT - 0 ft / 0 m 5.42715˚ 7.20602˚ 61 nm 247 nm 85° / 85° IMO

Altitude Profile

Advertisement - Login to hide

Weather


0- 5 10 15 20 25 30 35+ Temperature / ° C

Clouds and Precipitation
Forecast for 2018-05-25 06:00 UTC. Updated 4 hours ago

Ground ~20,000 ft ~40,000 ft Winds

DNMM

Details ICAO DNMM (LOS)
Name Lagos Murtala Muhammed
Region Nigeria
Timezone Africa/Lagos (UTC+1.0)
Stats Elevation 135 ft / 41 m (AMSL)
Location 6.577380° 3.321347°
Runways 2
Magnetic Variation 2.179° W

METAR

DNMM 250800Z VRB02KT 5000 -TSRA BKN007 FEW017CB 22/21 Q1015 NOSIG

Decode

TAF

TAF DNMM 250340Z 2506/2612 VRB02KT 9999 SCT010 FEW020CB TEMPO 2506/2508 TS PROB30 2506/2509 25010KT 5000 -TSRA BKN009 FEW019CB BECMG 2509/2511 20010KT BKN013 FEW020CB

Decode

Departure Runways

ID Width Length Bearing (true) Bearing (mag) Surface Threshold Offset Overrun Length
18L 148 ft / 45 m 9,049 ft / 2,758 m 180.00° 182.18° Asphalt 300 ft / 91 m 0 ft / 0 m
18R 197 ft / 60 m 12,867 ft / 3,922 m 180.00° 182.18° Asphalt 600 ft / 183 m 0 ft / 0 m
36L 197 ft / 60 m 12,867 ft / 3,922 m 0.00° 2.18° Asphalt 600 ft / 183 m 0 ft / 0 m
36R 148 ft / 45 m 9,049 ft / 2,758 m 0.00° 2.18° Asphalt 300 ft / 91 m 0 ft / 0 m

DNIM

Details ICAO DNIM (QOW)
Name IMO
Region Nigeria
Timezone Africa/Lagos (UTC+1.0)
Stats Elevation 373 ft / 114 m (AMSL)
Location 5.427149° 7.206022°
Runways 1
Magnetic Variation 1.424° W

METAR

Not found

TAF

TAF DNIM 250355Z 2506/2612 26005KT 6000 TS BKN009 FEW020CB BECMG 2509/2511 NSW BKN010 FEW020CB TEMPO 2514/2520 TS PROB30 2516/2520 5000 -TSRA BKN009 FEW020CB

Decode

Destination Runways

ID Width Length Bearing (true) Bearing (mag) Surface Threshold Offset Overrun Length
17 148 ft / 45 m 8,918 ft / 2,718 m 167.19° 168.61° Asphalt 0 ft / 0 m 0 ft / 0 m
35 148 ft / 45 m 8,918 ft / 2,718 m 347.19° 348.61° Asphalt 0 ft / 0 m 0 ft / 0 m